Flag for Ireland Weather past 2 weeks in Dublin, Ireland

Now
41 °F

Partly cloudy.


Feels Like: 34 °F
Forecast: N/A
Wind: 13 mph from West

Location: Dublin Airport

Current Time: Jan 26, 2015 at 7:00:41 PM

Latest Report: Jan 26, 2015 at 6:30 PM


Visibility: N/A

Pressure: 30.39 "Hg

Humidity: 87%

Dew point: 37 °F

Location of DublinLocation

Historic Weather in Dublin — Graph

°F

Dublin temperature yesterday

Maximum temperature yesterday: 52 °F (at 2:00 PM)
Minimum temperature yesterday: 41 °F (at 2:00 AM)
Average temperature yesterday: 47 °F

Past Weeks' High & Low Weather Summary

 TemperatureHumidityPressure
High52 °F (Jan 14, 8:30 PM)100% (Jan 16, 12:00 AM)30.42 "Hg (Jan 16, 12:00 AM)
Low21 °F (Jan 19, 8:00 AM)57% (Jan 12, 2:00 PM)28.65 "Hg (Jan 14, 9:00 PM)
Average38 °F86%29.78 "Hg
* Reported Jan 11 6:00 PM — Jan 26 6:00 PM, Dublin, Weather by CustomWeather, © 2014

Note: Actual official high and low records may vary slightly from our data, if they occured in-between our weather recording intervals... More about our weather records

Advertising

Dublin weather history for previous 24 hours

 ConditionsComfort  
Time TempWeatherWind HumidityBarometerVisibility
6:00 PM
Jan 26
41 °FPartly cloudy.12 mph87%30.39 "HgN/A
5:30 PM43 °FPartly cloudy.13 mph81%30.36 "HgN/A
5:00 PM43 °FPartly cloudy.13 mph81%30.36 "HgN/A
4:30 PM43 °FBroken clouds.17 mph81%30.33 "HgN/A
4:00 PM45 °FBroken clouds.16 mph76%30.33 "HgN/A
3:30 PM45 °FPartly sunny.16 mph76%30.33 "HgN/A
3:00 PM43 °FBroken clouds.17 mph81%30.33 "HgN/A
2:30 PM45 °FBroken clouds.16 mph81%30.30 "HgN/A
2:00 PM45 °FBroken clouds.16 mph81%30.33 "HgN/A
1:30 PM43 °FBroken clouds.17 mph87%30.33 "HgN/A
1:00 PM43 °FBroken clouds.18 mph87%30.33 "HgN/A
12:30 PM43 °FBroken clouds.17 mph87%30.33 "HgN/A
12:00 PM43 °FBroken clouds.17 mph81%30.30 "HgN/A
11:30 AM41 °FScattered clouds.16 mph87%30.30 "HgN/A
11:00 AM41 °FPartly sunny.16 mph87%30.30 "HgN/A
10:30 AM39 °FScattered clouds.18 mph93%30.27 "HgN/A
10:00 AM39 °FScattered clouds.18 mph93%30.27 "HgN/A
9:30 AM39 °FScattered clouds.15 mph87%30.27 "HgN/A
9:00 AM39 °FScattered clouds.21 mph87%30.27 "HgN/A
8:30 AM39 °FScattered clouds.18 mph87%30.27 "HgN/A
8:00 AM39 °FPassing clouds.15 mph87%30.24 "HgN/A
7:30 AM39 °FPassing clouds.14 mph87%30.24 "HgN/A
7:00 AM39 °FPassing clouds.14 mph87%30.24 "HgN/A
6:30 AM39 °FPassing clouds.12 mph87%30.21 "HgN/A
6:00 AM39 °FPassing clouds.12 mph93%30.21 "HgN/A
5:30 AM41 °FPassing clouds.10 mph87%30.21 "HgN/A
5:00 AM41 °FPassing clouds.12 mph93%30.18 "HgN/A
4:30 AM43 °FPassing clouds.15 mph87%30.18 "HgN/A
4:00 AM41 °FPassing clouds.13 mph93%30.18 "HgN/A
3:30 AM43 °FPassing clouds.14 mph87%30.15 "HgN/A
3:00 AM45 °FPartly cloudy.13 mph87%30.15 "HgN/A
2:30 AM45 °FPartly cloudy.20 mph93%30.15 "HgN/A
2:00 AM46 °FPassing clouds.13 mph93%30.15 "HgN/A
1:30 AM46 °FPartly cloudy.13 mph93%30.15 "HgN/A
1:00 AM46 °FPartly cloudy.10 mph93%30.12 "HgN/A
12:30 AM46 °FPartly cloudy.13 mph93%30.12 "HgN/A
12:00 AM46 °FPartly cloudy.14 mph100%30.12 "Hg5 mi
11:30 PM
Jan 25
48 °FPassing clouds.13 mph100%30.12 "Hg4 mi
11:00 PM48 °FPassing clouds.15 mph100%30.12 "Hg4 mi
10:30 PM48 °FPartly cloudy.16 mph100%30.12 "Hg4 mi
10:00 PM48 °FPartly cloudy.16 mph100%30.12 "Hg3 mi
9:30 PM48 °FPartly cloudy.15 mph100%30.12 "Hg3 mi
9:00 PM48 °FPartly cloudy.14 mph100%30.12 "Hg3 mi
8:30 PM50 °FPassing clouds.15 mph94%30.12 "Hg5 mi
8:00 PM50 °FPartly cloudy.15 mph88%30.15 "Hg5 mi
7:30 PM52 °FPartly cloudy.17 mph82%30.15 "HgN/A
7:00 PM52 °FLight rain. Passing clouds.16 mph82%30.15 "HgN/A
Weather by CustomWeather, © 2014

See weather overviewHow to use our weather pages